This is the latest recevied weather packets stored in our database for station/object KI2K. If no packets are shown the sender has not sent any weather packets the latest 10 day(s).
| Time | Temp. | Humidity | Pressure | Rain* | Wind** | Luminosity | Snow |
|---|---|---|---|---|---|---|---|
| 1777662935 | 12.22° C | 60% | 1015.8 hPa | 0 mm | - | 203 W/m² | - |
| 1777662632 | 11.67° C | 62% | 1015.7 hPa | 0 mm | - | 561 W/m² | - |
| 1777662328 | 12.78° C | 63% | 1015.8 hPa | 0 mm | - | 363 W/m² | - |
| 1777662024 | 11.67° C | 64% | 1015.5 hPa | 0 mm | - | 728 W/m² | - |
| 1777661720 | 11.67° C | 62% | 1015.8 hPa | 0 mm | - | 348 W/m² | - |
| 1777661415 | 11.67° C | 65% | 1015.4 hPa | 0 mm | - | 333 W/m² | - |
| 1777661112 | 11.67° C | 62% | 1015.6 hPa | 0 mm | - | 181 W/m² | - |
| 1777660806 | 12.22° C | 63% | 1015.4 hPa | 0 mm | - | 185 W/m² | - |
| 1777660504 | 12.22° C | 62% | 1015.5 hPa | 0 mm | - | 830 W/m² | - |
| 1777660200 | 11.67° C | 65% | 1015.8 hPa | 0 mm | - | 401 W/m² | - |
| 1777659897 | 11.11° C | 65% | 1015.6 hPa | 0 mm | - | 265 W/m² | - |
| 1777659594 | 11.11° C | 66% | 1015.5 hPa | 0 mm | - | 200 W/m² | - |
| 1777659291 | 11.67° C | 64% | 1015.4 hPa | 0 mm | - | 255 W/m² | - |
| 1777658988 | 10.56° C | 66% | 1015.5 hPa | 0 mm | - | 272 W/m² | - |
| 1777658685 | 10.56° C | 67% | 1015.6 hPa | 0 mm | - | 407 W/m² | - |
| 1777658381 | 10.56° C | 66% | 1015.8 hPa | 0 mm | - | 228 W/m² | - |
| 1777658078 | 11.11° C | 66% | 1015.7 hPa | 0 mm | - | 170 W/m² | - |
| 1777657775 | 12.22° C | 64% | 1015.5 hPa | 0 mm | - | 261 W/m² | - |
| 1777657473 | 11.67° C | 62% | 1015.7 hPa | 0 mm | - | 222 W/m² | - |
| 1777657170 | 11.11° C | 69% | 1015.7 hPa | 0 mm | - | 798 W/m² | - |
| 1777656868 | 10.56° C | 72% | 1015.6 hPa | 0 mm | - | 890 W/m² | - |
| 1777656563 | 10.56° C | 71% | 1015.8 hPa | 0 mm | - | 236 W/m² | - |
| 1777656259 | 11.11° C | 69% | 1015.5 hPa | 0 mm | - | 257 W/m² | - |
| 1777655954 | 11.11° C | 66% | 1015.4 hPa | 0 mm | - | 788 W/m² | - |
| 1777655651 | 11.67° C | 68% | 1015.5 hPa | 0 mm | - | 683 W/m² | - |
* Rain latest hour (hover to see other rain measurements)
** Current wind speed in m/s (hover to see current wind gust speed)